GW0795 Weather Reports


time (UTC)temp
F
wind
direction
speed
knots
gust
knots
rain 1hr
in
rain 24hr
in
rain mn
in
humidity
%
barometer
mb
20260503223505 79 303 2.6 6.1 0.00 0.00 0.00 39 1011.2
20260503223006 78 275 1.7 6.1 0.00 0.00 0.00 39 1011.2
20260503222505 78 352 1.7 6.1 0.00 0.00 0.00 38 1011.3
20260503222004 78 333 1.7 5.2 0.00 0.00 0.00 40 1011.4
20260503221508 78 255 1.7 7.8 0.00 0.00 0.00 40 1011.5
20260503221013 77 290 2.6 7.8 0.00 0.00 0.00 39 1011.6
20260503220507 77 262 0.9 5.2 0.00 0.00 0.00 40 1011.5
20260503220036 77 252 2.6 5.2 0.00 0.00 0.00 40 1011.6
20260503215507 77 200 2.6 7.8 0.00 0.00 0.00 41 1011.6
20260503215006 77 243 2.6 7.8 0.00 0.00 0.00 40 1011.7
20260503214515 77 294 1.7 7.0 0.00 0.00 0.00 40 1011.7
20260503214003 77 289 2.6 7.0 0.00 0.00 0.00 40 1011.8
20260503213503 77 300 3.5 7.0 0.00 0.00 0.00 40 1011.8
20260503213008 77 294 1.7 6.1 0.00 0.00 0.00 40 1011.9
20260503212504 78 309 2.6 7.0 0.00 0.00 0.00 41 1011.9
20260503212003 77 262 3.5 7.0 0.00 0.00 0.00 43 1012.0
20260503211507 77 352 2.6 7.0 0.00 0.00 0.00 41 1012.0
20260503211004 77 44 1.7 5.2 0.00 0.00 0.00 42 1012.0
20260503210506 77 123 2.6 7.0 0.00 0.00 0.00 42 1012.1
20260503210013 77 281 1.7 7.8 0.00 0.00 0.00 41 1012.1
20260503205507 77 340 3.5 7.8 0.00 0.00 0.00 41 1012.2
20260503205008 76 352 3.5 7.0 0.00 0.00 0.00 42 1012.2
20260503204516 77 308 3.5 7.0 0.00 0.00 0.00 40 1012.2
20260503204009 78 300 1.7 7.0 0.00 0.00 0.00 43 1012.3
20260503203506 77 352 2.6 7.0 0.00 0.00 0.00 43 1012.4
20260503203027 77 69 2.6 7.0 0.00 0.00 0.00 42 1012.4
20260503202504 77 299 2.6 7.0 0.00 0.00 0.00 43 1012.4
20260503202004 77 15 1.7 7.0 0.00 0.00 0.00 44 1012.5
20260503201508 76 18 2.6 7.0 0.00 0.00 0.00 43 1012.6
20260503201006 76 271 1.7 7.0 0.00 0.00 0.00 46 1012.6
20260503200503 75 298 2.6 7.0 0.00 0.00 0.00 45 1012.6
20260503200011 75 39 1.7 7.0 0.00 0.00 0.00 47 1012.8
20260503195505 76 46 2.6 6.1 0.00 0.00 0.00 46 1012.8
20260503195007 76 325 1.7 6.1 0.00 0.00 0.00 47 1012.8
20260503194517 75 28 3.5 6.1 0.00 0.00 0.00 46 1012.8
20260503194007 74 306 3.5 7.0 0.00 0.00 0.00 46 1013.0
20260503193508 74 266 2.6 7.0 0.00 0.00 0.00 47 1013.1
20260503193021 74 302 2.6 5.2 0.00 0.00 0.00 46 1013.1
20260503192506 74 339 2.6 7.8 0.00 0.00 0.00 47 1013.1
20260503192007 74 17 3.5 7.8 0.00 0.00 0.00 47 1013.2
20260503191521 74 266 1.7 7.0 0.00 0.00 0.00 49 1013.2
20260503191007 74 9 1.7 6.1 0.00 0.00 0.00 48 1013.3
20260503190504 74 360 2.6 6.1 0.00 0.00 0.00 48 1013.4
20260503190007 75 245 0.9 7.0 0.00 0.00 0.00 47 1013.5
20260503185503 74 288 1.7 7.0 0.00 0.00 0.00 50 1013.5
20260503185004 74 9 0.9 7.0 0.00 0.00 0.00 48 1013.5
20260503184514 74 29 3.5 7.0 0.00 0.00 0.00 47 1013.6
20260503184004 73 279 0.9 7.0 0.00 0.00 0.00 50 1013.7
20260503183507 73 5 2.6 7.8 0.00 0.00 0.00 48 1013.8
20260503183034 73 9 2.6 8.7 0.00 0.00 0.00 50 1013.8
20260503182507 72 5 2.6 8.7 0.00 0.00 0.00 49 1013.8
20260503182011 72 16 2.6 7.8 0.00 0.00 0.00 50 1013.8
20260503181524 72 81 3.5 7.8 0.00 0.00 0.00 50 1013.9
20260503181007 72 46 1.7 5.2 0.00 0.00 0.00 52 1013.9
20260503180508 71 32 2.6 6.1 0.00 0.00 0.00 53 1013.9
20260503180024 72 63 2.6 8.7 0.00 0.00 0.00 53 1013.8
20260503175506 72 28 1.7 8.7 0.00 0.00 0.00 52 1013.9
20260503175004 71 5 2.6 7.8 0.00 0.00 0.00 54 1013.9
20260503174513 71 30 2.6 7.8 0.00 0.00 0.00 52 1013.9
20260503174008 70 303 2.6 7.8 0.00 0.00 0.00 53 1013.9
20260503173510 70 53 1.7 5.2 0.00 0.00 0.00 53 1014.0
20260503173018 70 336 2.6 4.3 0.00 0.00 0.00 53 1014.0
20260503172506 70 55 1.7 4.3 0.00 0.00 0.00 54 1014.1
20260503172007 70 38 1.7 5.2 0.00 0.00 0.00 54 1014.1
20260503171520 69 69 2.6 5.2 0.00 0.00 0.00 53 1014.1
20260503171006 69 348 2.6 5.2 0.00 0.00 0.00 54 1014.1
20260503170511 69 21 1.7 7.0 0.00 0.00 0.00 54 1014.1
20260503151004 63 30 2.6 5.2 0.00 0.00 0.00 61 1014.2
20260503150503 63 352 1.7 4.3 0.00 0.00 0.00 62 1014.2
20260503131010 53 5 0.0 0.0 0.00 0.00 0.00 79 1014.2
20260503130506 53 5 0.0 0.0 0.00 0.00 0.00 79 1014.1
20260503110504 55 5 0.0 0.0 0.00 0.00 0.00 74 1014.2
20260503090510 56 53 0.0 0.0 0.00 0.00 0.00 69 1014.5
20260503081532 61 9 0.0 1.7 0.00 0.00 0.00 58 1014.6
20260503081010 61 9 0.0 1.7 0.00 0.00 0.00 56 1014.5
20260503080509 62 9 0.0 1.7 0.00 0.00 0.00 54 1014.5
20260503072507 63 51 0.9 2.6 0.00 0.00 0.00 52 1014.5
20260503072003 63 60 0.0 1.7 0.00 0.00 0.00 52 1014.5
20260503071507 63 27 0.9 1.7 0.00 0.00 0.00 51 1014.4
20260503071004 63 28 0.0 1.7 0.00 0.00 0.00 51 1014.4
20260503070505 64 331 0.0 1.7 0.00 0.00 0.00 51 1014.4
20260503055003 64 19 0.0 3.5 0.00 0.00 0.00 51 1014.3
20260503054513 64 9 1.7 3.5 0.00 0.00 0.00 51 1014.3
20260503054009 64 9 0.0 3.5 0.00 0.00 0.00 53 1014.2
20260503053506 64 19 0.9 2.6 0.00 0.00 0.00 54 1014.2
20260503053015 64 351 0.0 1.7 0.00 0.00 0.00 56 1014.3
20260503052506 64 352 0.0 1.7 0.00 0.00 0.00 56 1014.3
20260503052010 64 339 0.9 1.7 0.00 0.00 0.00 56 1014.2
20260503051519 64 350 0.0 1.7 0.00 0.00 0.00 58 1014.2
20260503051009 63 5 0.0 1.7 0.00 0.00 0.00 57 1014.3
20260503050507 63 9 0.0 0.0 0.00 0.00 0.00 58 1014.3
20260503050033 64 9 0.0 0.9 0.00 0.00 0.00 58 1014.3
20260503045507 64 9 0.0 0.9 0.00 0.00 0.00 57 1014.3
20260503045005 64 5 0.0 1.7 0.00 0.00 0.00 57 1014.3
20260503044506 64 5 0.0 1.7 0.00 0.00 0.00 58 1014.3
20260503044004 64 5 0.0 1.7 0.00 0.00 0.00 57 1014.3
20260503043504 65 5 0.0 1.7 0.00 0.00 0.00 58 1014.2
20260503043017 65 5 0.0 1.7 0.00 0.00 0.00 58 1014.1
20260503042506 65 15 0.0 1.7 0.00 0.00 0.00 58 1014.0
20260503042006 65 50 0.0 1.7 0.00 0.00 0.00 58 1014.0
20260503041516 65 23 0.0 1.7 0.00 0.00 0.00 58 1014.0
20260503041005 65 23 0.0 1.7 0.00 0.00 0.00 58 1013.9
20260503040511 65 350 0.9 1.7 0.00 0.00 0.00 58 1013.9
20260503040029 66 351 0.0 1.7 0.00 0.00 0.00 57 1013.9
20260503035510 66 346 0.9 1.7 0.00 0.00 0.00 56 1013.8
20260503035009 66 336 0.0 1.7 0.00 0.00 0.00 56 1013.7
20260503034534 66 19 0.0 1.7 0.00 0.00 0.00 57 1013.6
20260503034008 66 20 0.0 1.7 0.00 0.00 0.00 55 1013.5
20260503033507 67 36 0.0 2.6 0.00 0.00 0.00 56 1013.5
20260503033008 67 36 0.9 3.5 0.00 0.00 0.00 55 1013.4
20260503032505 67 14 0.9 3.5 0.00 0.00 0.00 54 1013.3
20260503032006 68 9 0.9 4.3 0.00 0.00 0.00 53 1013.4
20260503031512 68 22 1.7 4.3 0.00 0.00 0.00 53 1013.3
20260503031013 68 15 1.7 3.5 0.00 0.00 0.00 54 1013.3
20260503030506 68 19 1.7 3.5 0.00 0.00 0.00 54 1013.2
20260503030016 69 100 0.9 4.3 0.00 0.00 0.00 54 1013.2
20260503025506 69 26 0.9 4.3 0.00 0.00 0.00 53 1013.1
20260503025012 69 22 2.6 7.0 0.00 0.00 0.00 52 1013.1
20260503024523 70 10 1.7 7.0 0.00 0.00 0.00 52 1013.0
20260503024009 70 49 1.7 7.8 0.00 0.00 0.00 52 1012.9
20260503023511 70 338 2.6 7.8 0.00 0.00 0.00 51 1012.9
20260503023026 70 341 3.5 7.0 0.00 0.00 0.00 51 1012.8
20260503022509 70 13 0.9 6.1 0.00 0.00 0.00 51 1012.9
20260503022005 70 321 0.9 6.1 0.00 0.00 0.00 51 1012.9
20260503021509 71 325 1.7 7.0 0.00 0.00 0.00 50 1012.8
20260503021005 71 346 0.9 7.0 0.00 0.00 0.00 50 1012.8
20260503020505 71 38 2.6 6.1 0.00 0.00 0.00 49 1012.9
20260503020016 72 5 2.6 7.8 0.00 0.00 0.00 49 1012.9
20260503015508 72 346 0.9 7.8 0.00 0.00 0.00 49 1012.9
20260503015009 72 39 1.7 7.8 0.00 0.00 0.00 50 1012.9
20260503014536 72 26 3.5 7.8 0.00 0.00 0.00 49 1012.9
20260503014008 72 333 3.5 7.0 0.00 0.00 0.00 49 1012.9
20260503013513 73 38 2.6 7.0 0.00 0.00 0.00 48 1013.0
20260503013026 73 312 0.9 7.8 0.00 0.00 0.00 48 1013.0
20260503012509 73 27 4.3 7.8 0.00 0.00 0.00 47 1013.1
20260503012009 73 5 1.7 5.2 0.00 0.00 0.00 48 1013.1
20260503011528 73 37 2.6 6.1 0.00 0.00 0.00 47 1013.1
20260503011008 73 34 2.6 7.8 0.00 0.00 0.00 47 1013.1
20260503010507 73 329 3.5 7.8 0.00 0.00 0.00 46 1013.1
20260503010014 73 42 2.6 8.7 0.00 0.00 0.00 45 1013.0
20260503005506 73 36 2.6 8.7 0.00 0.00 0.00 46 1013.1
20260503005006 73 21 3.5 10.4 0.00 0.00 0.00 46 1013.2
20260503004517 73 350 3.5 10.4 0.00 0.00 0.00 47 1013.2
20260503004007 73 9 6.1 9.6 0.00 0.00 0.00 45 1013.2
20260503003506 73 16 3.5 7.8 0.00 0.00 0.00 46 1013.2
20260503003021 73 352 1.7 7.8 0.00 0.00 0.00 46 1013.1
20260503002510 73 327 3.5 7.8 0.00 0.00 0.00 47 1013.2
20260503002014 73 352 3.5 7.8 0.00 0.00 0.00 46 1013.2
20260503001508 73 320 3.5 8.7 0.00 0.00 0.00 46 1013.2
20260503001008 73 9 2.6 8.7 0.00 0.00 0.00 47 1013.2
20260503000509 73 22 4.3 7.8 0.00 0.00 0.00 46 1013.3
20260503000015 73 53 3.5 7.0 0.00 0.00 0.00 47 1013.4
20260502235504 73 336 0.9 10.4 0.00 0.00 0.00 48 1013.4
20260502235004 72 23 4.3 10.4 0.00 0.00 0.00 48 1013.5
20260502234516 73 294 4.3 8.7 0.00 0.00 0.00 47 1013.5
20260502234009 73 24 1.7 8.7 0.00 0.00 0.00 47 1013.6
20260502233502 72 44 3.5 8.7 0.00 0.00 0.00 46 1013.7
20260502233002 72 5 1.7 7.8 0.00 0.00 0.00 47 1013.8
20260502232503 72 336 3.5 12.2 0.00 0.00 0.00 47 1013.8
20260502232001 72 308 4.3 12.2 0.00 0.00 0.00 45 1013.9
20260502231506 73 30 3.5 10.4 0.00 0.00 0.00 45 1014.0
20260502231006 73 345 3.5 10.4 0.00 0.00 0.00 45 1014.0
20260502230509 73 34 5.2 10.4 0.00 0.00 0.00 44 1014.1
20260502230011 73 17 5.2 11.3 0.00 0.00 0.00 45 1014.1
20260502225505 73 28 2.6 11.3 0.00 0.00 0.00 43 1014.2
20260502225007 73 352 2.6 10.4 0.00 0.00 0.00 44 1014.3
20260502224517 73 13 2.6 10.4 0.00 0.00 0.00 47 1014.4
20260502224004 72 335 2.6 7.8 0.00 0.00 0.00 46 1014.4